Location: Edmonton
(53.5500°N, 113.5000°W)
Time: 17:24:42
(UTC-07:00)

Envisat - Visible Passes

Search period start: 21 February 2019 00:00
Search period end: 03 March 2019 00:00
Orbit: 764 x 766 km, 98.2° (Epoch: 21 February)

Date Brightness Start Highest point End Pass type
(mag) Time Alt. Az. Time Alt. Az. Time Alt. Az.
21 Feb 6.3 06:40:13 10° NE 06:42:50 14° E 06:45:26 10° ESE visible
21 Feb 4.2 19:38:57 10° S 19:43:47 44° W 19:48:41 10° NNW visible
22 Feb 3.1 19:01:49 10° SSE 19:06:55 84° WSW 19:12:03 10° NNW visible
22 Feb 6.0 20:43:50 10° WSW 20:46:45 15° W 20:49:41 10° NW visible
23 Feb 5.1 20:05:10 10° SSW 20:09:32 28° W 20:13:56 10° NNW visible
24 Feb 6.6 06:29:52 10° ENE 06:31:26 11° E 06:32:59 10° E visible
24 Feb 3.8 19:27:33 10° S 19:32:31 54° W 19:37:31 10° NNW visible
25 Feb 3.0 18:50:37 10° SSE 18:55:42 81° ENE 19:00:49 10° NNW visible
25 Feb 5.8 20:31:53 10° SW 20:35:23 18° W 20:38:53 10° NW visible
26 Feb 4.7 19:53:37 10° SSW 19:58:14 34° W 20:02:52 10° NNW visible
27 Feb 3.5 19:16:14 10° S 19:21:16 65° WSW 19:26:21 10° NNW visible
27 Feb 6.2 20:59:42 10° W 21:01:19 11° W 21:02:57 10° WNW visible
28 Feb 3.0 18:39:28 10° SSE 18:44:30 68° ENE 18:49:35 10° N visible
28 Feb 5.5 20:20:06 10° SW 20:24:01 22° W 20:27:58 10° NW visible
01 Mar 6.2 06:43:06 10° NE 06:46:01 15° E 06:48:54 10° ESE visible
01 Mar 4.4 19:42:08 10° SSW 19:46:56 41° W 19:51:45 10° NNW visible
02 Mar 3.2 19:04:57 10° SSE 19:10:02 79° WSW 19:15:09 10° NNW visible
02 Mar 6.0 20:47:17 10° WSW 20:49:56 14° W 20:52:34 10° NW visible
